This is the latest recevied weather packets stored in our database for station/object KN6WGU. If no packets are shown the sender has not sent any weather packets the latest 10 day(s).
| Time | Temp. | Humidity | Pressure | Rain* | Wind** | Luminosity | Snow |
|---|---|---|---|---|---|---|---|
| 1787432067 | 21.67° C | 79% | 1003.1 hPa | 0 mm | - | 5 W/m² | - |
| 1787431766 | 25° C | 78% | 1003.1 hPa | 0 mm | - | 4 W/m² | - |
| 1787431461 | 25° C | 80% | 1002.2 hPa | 0 mm | - | 16 W/m² | - |
| 1787431158 | 25° C | 79% | 1001.9 hPa | 0 mm | - | 8 W/m² | - |
| 1787430854 | 25.56° C | 77% | 1002.1 hPa | 0 mm | - | 9 W/m² | - |
| 1787430549 | 26.11° C | 74% | 1002 hPa | 0 mm | - | 6 W/m² | - |
| 1787430247 | 26.67° C | 71% | 1002 hPa | 0 mm | - | 9 W/m² | - |
| 1787429942 | 27.78° C | 68% | 1002.2 hPa | 0 mm | - | 44 W/m² | - |
| 1787429642 | 28.33° C | 65% | 1002.2 hPa | 0 mm | - | 80 W/m² | - |
| 1787429337 | 28.89° C | 64% | 1002.5 hPa | 0 mm | - | 132 W/m² | - |
| 1787429034 | 29.44° C | 62% | 1002.6 hPa | 0 mm | - | 395 W/m² | - |
| 1787428728 | 30° C | 59% | 1002.5 hPa | 0 mm | - | 387 W/m² | - |
| 1787428418 | 29.44° C | 67% | 1002.7 hPa | 0 mm | - | 560 W/m² | - |
| 1787428112 | 28.89° C | 63% | 1002.6 hPa | 0 mm | - | 556 W/m² | - |
| 1787427807 | 28.33° C | 63% | 1002.5 hPa | 0 mm | - | 520 W/m² | - |
| 1787427503 | 28.33° C | 64% | 1002.9 hPa | 0 mm | - | 469 W/m² | - |
| 1787427200 | 28.89° C | 66% | 1002.8 hPa | 0 mm | - | 186 W/m² | - |
| 1787426895 | 29.44° C | 66% | 1003 hPa | 0 mm | - | 229 W/m² | - |
| 1787426590 | 28.89° C | 60% | 1002.9 hPa | 0 mm | - | 626 W/m² | - |
| 1787426287 | 28.89° C | 62% | 1002.7 hPa | 0 mm | - | 600 W/m² | - |
| 1787425983 | 28.89° C | 60% | 1002.8 hPa | 0 mm | - | 610 W/m² | - |
| 1787425679 | 28.89° C | 59% | 1003 hPa | 0 mm | - | 627 W/m² | - |
| 1787425375 | 28.89° C | 61% | 1002.9 hPa | 0 mm | - | 637 W/m² | - |
| 1787425074 | 28.33° C | 61% | 1002.9 hPa | 0 mm | - | 679 W/m² | - |
| 1787424774 | 28.89° C | 60% | 1002.9 hPa | 0 mm | - | 664 W/m² | - |
* Rain latest hour (hover to see other rain measurements)
** Current wind speed in m/s (hover to see current wind gust speed)